User: anonymous   Login
Location: Unspecified
(0.0000°N, 0.0000°E)
Time: 21:20:06
(UTC+00:00)
Language:

STARLINK-33889 - Orbit

View from above orbital plane
View from above orbital plane
View from above satellite
View from above satellite

Ground track
Ground track

The orbit is defined by the following mean orbital elements,

1 63829U          26145.36711867 +.00000000 +00000-0 +64587-3 0 00001
2 63829  43.0012  99.3225 0001343 273.0462  87.0236 15.27596892    05
Epoch (UTC): 25 May 2026 08:48:39
Eccentricity: 0.0001343
inclination: 43.0012°
perigee height: 482 km
apogee height: 484 km
right ascension of ascending node: 99.3225°
argument of perigee: 273.0462°
revolutions per day: 15.27596892
mean anomaly at epoch: 87.0236°

The dashed part of the orbit path shows where the satellite is in the earth's shadow,  

DLR